GFSCGP_sfc_dewp_093.txt.gz
Dewpoint
21 18 19 18 21 21 22 20 20 20 18 17 19 18 15 17 20 24 26 30 37 43 46 51 52 54 55 57 58 58 57 58 59 59 58 57 57 59 59 58 57 56 55 55
11 17 16 21 22 22 22 22 22 21 19 20 21 19 16 16 17 23 24 30 35 42 47 50 53 54 55 56 57 57 57 57 58 58 58 58 57 58 58 58 58 57 56 55
17 13 20 17 21 23 24 24 23 20 21 21 21 20 18 17 17 20 25 28 30 39 46 49 51 53 54 55 57 57 57 57 57 58 58 58 58 58 57 57 57 56 56 55
19 17 17 21 19 21 24 24 21 20 20 19 21 15 16 17 19 23 26 29 31 36 45 47 50 52 55 56 56 56 57 56 57 58 57 56 54 54 55 56 57 57 56 55
18 18 17 18 20 21 23 23 21 22 21 22 19 17 18 17 16 19 22 25 30 36 44 46 49 50 53 55 55 57 56 56 57 56 57 56 54 54 55 56 57 57 53 53
21 19 20 17 18 21 23 24 24 24 24 21 21 20 17 15 19 21 24 28 31 37 44 46 48 48 51 55 55 56 56 56 57 57 57 56 55 54 54 54 54 56 54 52
16 20 21 22 17 23 24 25 23 27 27 22 21 20 21 20 19 20 23 25 34 38 44 46 47 47 50 54 54 54 55 55 56 57 57 56 55 56 54 54 53 54 54 55
7 9 16 19 20 20 22 24 22 20 24 25 22 17 17 20 21 24 24 26 34 39 44 46 47 48 49 53 54 55 53 53 56 56 56 56 55 54 54 54 53 52 53 52
15 6 12 7 11 16 19 23 24 22 25 25 23 20 24 23 25 24 23 28 32 38 43 45 46 49 48 51 53 54 53 53 55 56 57 56 56 54 53 55 56 54 53 51
26 23 20 9 15 15 14 15 20 21 21 21 20 19 18 22 24 24 23 25 28 34 41 44 45 50 50 50 52 55 53 52 54 55 57 56 56 57 56 55 55 56 55 55
25 28 23 24 21 15 15 15 17 19 20 19 21 19 23 25 25 26 26 28 30 35 40 43 45 48 50 51 51 53 53 51 53 54 55 56 56 56 56 56 56 56 57 55
25 28 25 22 23 27 27 18 17 21 19 21 22 21 27 27 27 32 30 29 31 36 41 42 43 47 49 51 50 51 52 52 52 53 54 55 56 57 57 56 56 57 57 57
24 23 22 19 21 26 26 24 23 24 26 23 26 24 24 24 24 25 27 27 29 33 38 42 43 44 48 50 51 51 52 51 51 52 53 56 57 57 57 57 57 57 56 55
30 21 21 15 18 21 25 25 26 26 26 24 22 20 20 21 23 25 26 28 29 32 32 38 42 44 46 49 51 51 52 52 51 51 52 55 55 56 56 57 57 58 57 56
27 19 17 16 15 16 18 19 20 21 24 25 24 23 24 25 25 25 26 27 26 26 27 31 39 44 46 48 50 51 52 53 52 51 52 53 55 55 55 56 57 56 57 55
31 24 21 17 19 18 16 12 12 12 15 19 21 21 22 23 25 26 26 24 25 25 25 31 33 39 44 46 49 50 52 53 55 53 53 52 54 53 55 56 56 56 55 55
28 27 25 19 15 18 21 20 17 14 12 14 18 21 22 27 26 26 26 25 23 25 28 30 32 34 38 44 47 49 51 53 53 53 52 52 52 52 54 53 53 53 54 55
30 28 28 24 23 16 14 11 15 16 21 18 12 18 31 30 30 27 26 25 25 28 32 32 33 33 34 38 44 49 50 52 53 53 52 52 53 52 52 53 53 53 50 47
28 30 28 25 21 17 16 19 28 21 19 35 34 33 34 35 38 38 32 30 34 36 35 33 33 33 35 37 42 47 49 51 52 52 52 52 53 53 53 50 46 43 39 37
26 29 30 26 21 19 25 22 23 29 26 33 33 36 38 38 36 37 43 43 42 43 44 40 40 37 39 43 44 48 50 51 51 52 52 53 51 48 45 42 39 37 35 34
27 32 29 27 23 23 22 22 25 26 32 34 34 34 36 36 39 42 42 43 46 47 46 46 44 42 44 46 48 49 51 50 48 47 45 44 43 41 39 37 35 33 31 30
28 29 28 27 26 23 24 30 28 33 33 33 35 35 34 37 40 42 41 44 47 46 47 46 47 47 49 50 50 46 44 43 42 41 39 38 37 36 35 34 33 32 30 29
28 25 27 26 26 29 31 32 32 31 32 33 35 33 35 37 39 43 43 46 46 46 46 47 47 48 47 46 43 40 38 37 36 35 35 35 34 34 33 32 31 30 30 29
21 25 26 26 25 25 27 25 26 25 30 31 32 35 35 34 39 45 47 45 44 43 43 43 43 42 41 41 39 37 36 35 34 32 32 31 30 30 30 30 30 30 29 28
23 24 25 24 24 24 25 25 26 26 32 32 36 35 37 39 45 46 42 39 37 38 37 38 38 37 38 37 36 35 35 34 32 31 30 29 28 27 27 27 27 28 30 32
25 25 25 26 26 29 27 28 31 31 32 35 35 36 43 43 42 40 37 36 34 33 34 36 36 36 37 37 36 36 36 33 32 30 29 28 27 26 26 25 26 29 28 29

GFSCGP_sfc_dewp_096.txt.gz
Dewpoint
14 8 12 16 20 20 21 21 21 21 21 21 21 20 19 21 19 23 23 28 30 39 45 52 53 54 55 57 58 58 58 59 59 58 58 59 59 61 61 61 60 60 58 56
16 10 13 12 15 18 19 20 21 23 22 23 21 19 21 22 21 19 18 24 30 37 49 51 53 54 55 56 57 58 57 58 58 58 58 58 59 59 59 58 58 58 56 56
17 12 12 13 12 15 21 23 24 24 24 25 23 20 21 22 23 21 20 24 27 36 48 50 53 53 55 55 57 57 57 58 58 59 58 57 58 58 57 57 57 57 56 56
20 19 17 11 15 13 15 21 23 25 26 21 24 19 22 22 20 20 20 24 31 30 47 50 51 53 55 55 56 56 57 57 57 58 57 56 55 54 55 55 56 57 57 57
19 18 17 16 14 19 18 20 21 26 28 25 23 21 21 21 19 19 24 28 31 33 47 49 50 52 54 56 57 56 56 57 58 57 57 55 54 54 54 54 54 56 56 56
15 17 16 17 17 16 18 20 22 24 25 23 25 25 21 20 21 20 21 26 35 34 45 48 50 51 53 56 56 57 56 56 57 57 57 55 54 54 53 52 52 53 54 55
12 15 16 19 19 19 17 21 21 23 25 27 26 24 24 25 23 21 26 29 37 38 45 47 48 48 52 55 54 56 56 55 57 57 57 56 55 55 53 53 52 53 52 53
10 9 6 18 20 19 16 20 23 19 25 24 31 25 23 24 24 22 26 30 35 39 46 46 48 48 51 55 54 54 55 55 56 57 57 56 55 54 54 54 53 54 52 51
21 16 6 14 20 19 18 21 23 23 25 31 29 29 30 24 25 25 25 27 35 39 44 45 48 49 50 54 55 55 55 55 54 57 57 56 56 55 54 54 53 54 54 53
30 25 11 11 14 18 18 20 21 23 20 19 22 28 26 27 26 26 25 28 34 39 43 45 47 50 50 53 54 56 54 54 55 55 56 56 55 55 55 54 53 53 53 53
25 26 26 11 8 9 10 12 14 16 20 19 22 25 34 33 32 31 31 32 35 40 41 44 46 50 49 52 53 55 54 53 54 55 56 56 55 55 54 55 54 54 53 53
25 25 25 24 20 24 25 16 16 17 17 21 22 22 34 34 31 31 30 29 37 36 40 43 45 50 50 51 52 53 54 53 54 55 56 56 56 56 55 55 55 55 55 54
26 22 21 19 19 24 24 25 20 19 21 21 25 24 29 30 27 32 30 29 31 37 41 43 44 47 50 51 51 52 53 53 53 54 55 56 56 56 56 56 55 56 55 55
32 18 18 20 18 19 22 23 25 26 26 23 24 22 30 35 26 28 30 32 30 32 33 40 43 44 49 51 51 51 53 53 52 54 54 55 56 56 55 56 56 56 56 56
26 16 14 13 13 13 13 18 20 22 25 24 24 22 23 25 25 25 27 29 28 27 27 31 39 44 46 50 52 52 52 53 52 52 53 55 56 56 57 56 56 56 56 55
26 23 22 18 14 11 13 13 14 14 15 15 20 21 23 24 24 25 26 26 26 27 26 26 30 38 45 47 51 52 53 53 52 52 52 54 55 55 56 56 56 56 56 56
26 25 24 20 19 15 18 16 11 10 9 11 13 18 21 22 23 26 30 31 29 28 27 26 33 36 43 48 50 51 53 54 53 52 52 52 54 55 55 56 56 56 56 55
29 27 27 24 23 17 19 12 12 15 15 15 26 18 13 21 31 32 35 41 42 43 42 43 40 38 39 41 48 51 52 53 54 53 53 53 53 54 54 55 55 51 47 43
24 26 28 22 20 17 16 16 19 28 26 34 33 34 36 37 37 33 40 41 42 44 47 47 46 44 44 39 39 48 50 51 53 53 53 53 53 53 53 50 44 41 39 36
24 29 30 27 21 18 24 22 22 25 26 33 33 33 35 35 35 34 39 41 41 44 46 46 47 46 45 42 44 44 48 51 52 53 53 53 52 48 43 40 38 36 34 32
26 29 27 27 26 24 25 23 26 22 32 34 34 35 34 32 35 38 40 41 41 45 46 47 47 47 47 48 46 49 50 49 48 46 44 44 43 39 37 35 34 32 31 31
25 28 28 28 25 23 24 23 27 32 32 30 32 36 36 37 37 37 36 42 44 45 45 46 47 48 48 47 47 44 43 43 42 40 38 37 36 35 34 33 32 31 30 29
29 26 26 25 25 30 30 34 35 31 28 29 34 32 34 35 34 35 42 45 45 44 43 44 44 45 44 43 42 39 38 38 38 37 35 34 33 33 32 31 31 30 30 28
30 29 31 34 31 30 34 34 35 26 26 29 32 34 32 33 38 42 45 43 40 39 38 39 41 40 39 39 38 37 36 35 34 33 32 32 31 31 31 31 31 30 29 28
28 32 30 33 26 27 27 31 33 32 31 30 36 34 35 43 43 43 40 39 37 35 36 37 37 37 36 36 35 35 34 33 31 30 30 29 28 28 28 28 29 29 30 30
28 29 30 30 31 31 31 30 31 30 31 36 35 35 40 40 39 38 35 34 32 31 29 29 29 31 35 36 35 35 34 32 30 28 28 28 27 26 25 23 24 28 27 27

GFSCGP_sfc_dewp_099.txt.gz
Dewpoint
15 10 8 11 23 24 24 23 22 22 22 22 22 21 21 19 21 23 29 28 28 39 52 52 54 56 56 57 58 57 58 59 58 58 58 58 59 61 60 61 61 61 60 57
15 10 10 9 13 20 21 21 19 19 21 22 24 24 24 21 21 22 22 20 28 49 50 52 54 55 55 57 57 57 58 58 58 58 58 59 60 61 60 60 61 60 58 56
25 23 16 10 10 12 12 17 19 19 22 25 28 26 23 23 22 22 22 22 32 49 50 52 52 54 55 56 57 57 57 57 58 58 58 58 58 59 59 60 59 58 57 55
27 27 21 11 10 13 11 13 16 19 23 24 28 24 26 24 24 23 22 23 27 49 50 52 52 54 54 55 56 57 57 58 58 57 57 57 56 55 57 58 59 57 57 56
20 22 21 19 18 13 13 18 17 18 21 25 27 26 25 26 26 23 21 22 24 49 49 51 52 53 54 55 55 56 57 57 57 56 56 56 56 56 57 56 56 57 57 57
14 16 15 18 19 19 20 21 22 21 24 24 27 25 24 26 26 24 23 23 27 48 49 51 52 53 54 55 55 56 57 57 57 57 56 55 55 54 54 55 55 55 55 56
13 11 12 15 17 19 19 17 22 24 22 21 24 24 25 27 27 26 26 28 31 48 49 49 51 52 54 55 55 56 56 57 57 57 56 54 54 53 53 53 54 54 54 55
13 14 11 13 16 20 21 19 25 20 24 25 26 29 29 30 28 27 26 30 43 47 48 48 51 52 54 55 55 55 55 56 57 57 56 55 54 53 53 53 52 52 53 53
21 18 27 15 11 19 22 20 21 23 27 29 30 29 33 34 31 32 26 31 40 45 47 47 49 52 53 54 55 54 53 54 56 57 57 55 55 53 53 51 51 50 51 52
30 27 27 29 11 16 20 23 20 23 18 19 23 29 32 33 32 35 33 29 37 45 45 47 47 51 54 54 53 54 54 53 55 56 57 55 54 54 53 53 52 52 51 51
27 27 28 31 15 15 21 19 21 22 24 21 20 23 36 36 35 35 32 29 36 42 44 47 47 49 53 54 54 54 54 54 53 54 56 56 55 54 54 53 53 54 53 52
28 26 28 27 32 33 19 17 17 18 16 23 22 21 32 35 36 34 36 37 29 31 42 46 48 48 52 53 54 54 54 54 54 54 55 55 55 55 54 54 53 54 53 53
27 24 22 29 29 31 27 26 26 19 21 19 21 24 33 38 34 37 37 35 30 32 34 45 48 48 51 51 53 54 54 53 54 55 55 55 55 54 54 54 54 53 53 53
33 22 16 18 23 26 18 19 31 29 21 19 18 19 32 36 37 34 26 30 28 37 29 39 48 48 49 51 52 53 54 53 54 55 55 55 55 55 54 54 54 55 55 54
27 23 22 20 17 15 14 12 19 28 29 28 28 23 28 36 39 29 26 33 35 37 38 33 32 47 49 49 51 52 53 53 53 54 55 55 55 55 55 55 55 54 55 55
26 26 26 23 24 19 16 12 13 14 15 15 18 17 21 24 26 24 40 41 42 44 46 45 45 44 46 50 50 51 52 53 52 53 54 55 55 55 55 55 55 55 55 55
29 27 26 23 22 24 20 19 15 14 13 14 12 18 16 14 29 39 40 40 40 43 45 46 46 45 45 47 52 51 52 53 52 51 53 54 55 55 56 55 55 55 55 55
30 28 28 26 25 18 22 22 19 18 21 24 31 35 35 35 37 38 39 39 40 42 45 45 46 46 46 46 44 54 52 52 52 51 51 53 55 55 55 55 55 53 46 43
26 29 28 25 23 24 19 21 27 29 32 33 33 33 33 34 36 35 37 39 41 45 46 46 46 47 48 49 49 44 53 53 52 51 51 51 53 54 55 50 43 41 39 37
23 29 28 26 21 18 29 31 26 26 31 35 35 35 35 33 33 34 37 37 42 46 46 46 46 48 48 47 48 49 50 52 53 52 53 54 54 53 45 41 38 36 35 33
22 26 24 25 26 27 28 32 30 24 30 35 33 35 34 33 35 36 37 44 46 45 45 45 46 47 46 45 44 42 44 44 45 43 44 44 43 41 38 36 35 34 32 31
23 25 24 27 23 21 29 28 30 34 34 31 35 33 36 36 35 36 42 46 44 42 42 42 43 44 43 42 41 39 39 40 41 41 41 39 39 37 37 34 32 31 31 30
27 28 29 27 26 31 34 37 39 35 33 33 35 34 34 33 35 43 45 42 39 37 38 39 40 41 40 39 39 38 38 38 37 37 37 36 36 35 34 33 31 30 30 29
35 36 31 31 31 31 33 36 36 33 33 36 36 35 39 42 44 44 41 39 36 35 36 36 37 37 36 37 36 36 35 35 34 34 33 33 32 32 32 31 31 30 30 29
34 36 34 35 36 37 39 37 35 34 37 37 36 39 42 42 39 39 37 35 34 32 31 31 31 35 36 35 34 33 33 32 31 30 29 29 28 27 26 27 29 29 29 28
32 36 35 33 38 38 38 39 40 37 37 37 38 40 37 37 37 36 33 32 31 29 28 28 28 30 32 34 33 32 31 30 29 27 26 26 25 24 24 23 24 28 27 28

GFSCGP_sfc_dewp_102.txt.gz
Dewpoint
17 13 11 11 25 25 26 25 24 25 24 21 20 22 23 27 26 22 24 27 28 44 52 53 56 57 56 56 56 56 56 58 59 58 58 58 59 60 60 62 62 62 60 56
20 12 12 10 11 17 24 24 23 23 22 21 20 20 26 28 26 24 23 24 29 50 51 54 55 56 56 56 55 56 56 58 58 58 57 57 59 60 60 61 61 61 61 58
28 23 14 11 10 9 13 19 21 21 20 19 20 22 27 28 28 29 27 24 36 50 51 53 54 54 55 55 55 56 56 57 58 58 58 59 59 60 59 60 59 59 59 58
29 31 29 18 10 10 7 10 13 14 16 15 27 21 24 28 28 28 27 27 37 49 51 53 54 54 54 55 55 56 56 56 57 58 58 58 58 58 58 59 59 57 57 57
19 28 29 27 22 13 10 14 16 15 15 19 23 25 25 27 27 27 27 27 32 49 51 52 53 53 55 56 56 55 56 56 56 57 57 57 57 58 59 59 58 56 56 56
16 18 19 23 24 20 14 14 15 17 21 20 26 27 23 26 26 27 27 28 29 47 50 51 53 54 54 55 55 56 56 56 56 56 56 56 56 56 56 57 57 56 56 56
16 15 15 15 13 16 19 18 18 19 20 19 23 24 22 27 28 28 28 29 30 39 50 51 53 53 53 54 54 56 56 56 57 56 56 56 56 55 55 56 56 55 55 56
15 13 13 14 12 15 17 19 21 15 21 21 23 23 28 34 34 33 32 31 42 48 51 51 52 53 53 53 54 56 56 56 56 56 55 55 55 55 55 55 55 55 55 55
22 15 26 14 13 14 15 20 23 22 28 24 25 28 31 36 37 36 31 31 44 48 50 51 52 53 54 54 54 55 56 56 56 57 56 54 54 54 54 54 55 55 55 56
27 24 27 29 26 15 19 23 20 22 16 16 22 25 28 34 36 35 35 35 41 47 49 51 52 53 54 54 54 55 55 56 56 57 56 55 54 53 53 54 53 53 55 55
26 28 26 29 27 17 18 18 22 24 24 17 19 21 35 36 37 37 39 38 38 40 48 49 51 53 54 54 54 53 54 53 55 57 56 55 54 54 53 52 51 51 52 53
29 27 26 26 31 31 31 22 26 24 22 24 24 22 35 35 38 42 40 40 39 35 36 48 49 53 53 53 54 53 53 53 53 55 57 56 55 54 53 52 52 52 51 52
30 29 22 25 28 33 24 26 30 28 25 24 22 21 37 38 37 37 38 42 39 42 43 49 50 52 53 53 53 53 54 53 53 54 56 56 56 54 54 53 53 53 53 53
32 29 19 19 28 30 22 20 29 31 25 24 20 20 36 37 37 35 38 42 43 44 44 47 52 53 53 54 54 53 54 54 54 54 53 55 55 55 54 54 53 53 53 53
31 25 24 23 22 21 21 16 20 31 30 26 27 28 35 36 37 41 41 42 42 45 45 45 46 51 50 54 54 55 54 54 55 54 53 53 55 55 55 54 54 53 53 53
31 26 27 23 23 24 22 21 19 22 27 24 19 15 25 35 39 41 40 40 41 45 44 44 44 45 47 49 53 54 55 55 55 54 54 54 54 55 55 54 54 54 54 53
31 28 26 23 26 24 19 21 19 17 21 23 17 33 31 38 38 38 38 40 42 43 43 44 44 46 48 49 50 50 54 55 54 54 55 55 55 55 55 55 54 54 54 54
26 27 26 24 24 17 22 23 22 31 33 32 33 32 35 37 37 38 38 40 44 44 45 45 45 47 48 47 47 49 53 54 55 54 54 55 55 54 55 55 54 54 51 47
26 27 22 21 22 23 19 27 27 29 32 34 33 33 33 35 36 35 37 44 45 45 45 44 45 47 46 45 45 45 46 49 54 53 53 55 55 55 55 54 53 44 41 40
23 27 24 24 19 17 26 30 31 29 31 35 35 35 34 34 32 33 41 45 45 44 43 43 43 44 44 43 43 43 44 44 45 48 54 55 55 55 53 46 42 39 38 35
21 23 22 22 21 26 29 29 31 22 27 35 34 33 34 33 35 36 45 44 42 41 40 40 41 42 41 41 42 41 41 41 42 44 47 47 47 45 42 39 37 35 33 32
21 20 19 23 20 19 29 31 28 33 34 33 34 35 35 34 39 44 42 39 37 37 37 38 39 40 39 38 40 39 38 39 39 40 40 41 42 39 37 35 34 33 32 31
27 25 26 25 24 30 32 35 40 36 32 34 33 33 37 41 43 43 39 37 36 35 35 35 38 38 37 37 37 37 37 37 37 36 36 36 35 35 34 33 32 31 32 30
35 36 31 29 31 36 38 37 37 35 36 35 37 42 43 42 40 38 37 35 32 31 31 31 33 36 35 35 34 34 34 35 34 33 33 33 32 32 32 31 31 30 29 28
34 36 35 35 37 37 38 38 38 37 38 41 40 39 39 38 37 36 34 32 30 29 29 29 30 31 34 33 33 32 32 31 29 29 28 27 27 27 27 27 27 27 28 27
38 35 33 33 39 38 39 42 39 37 38 40 38 36 36 36 35 34 32 30 28 28 28 28 29 30 31 31 31 31 31 29 28 26 26 26 25 26 26 26 26 28 27 27

GFSCGP_sfc_dewp_105.txt.gz
Dewpoint
18 11 10 13 24 21 22 25 24 25 25 24 23 22 22 22 23 28 27 25 25 31 53 54 56 56 56 56 56 56 56 56 57 59 58 58 59 60 61 62 61 61 60 58
25 16 12 14 16 22 25 24 24 25 25 25 23 22 22 23 26 28 26 28 25 46 52 54 55 55 55 55 55 55 55 57 57 57 56 58 59 60 59 61 61 61 58 55
19 24 25 13 12 10 12 18 22 23 24 22 20 18 18 22 28 29 30 30 26 44 51 53 55 55 55 55 55 55 56 57 57 57 57 58 58 60 59 59 61 59 57 55
20 20 24 17 10 10 7 11 13 16 19 16 21 14 20 25 25 27 29 29 28 43 50 53 54 54 54 55 55 55 57 55 56 57 57 57 56 57 59 59 60 60 58 57
4 29 26 24 26 11 10 13 13 13 13 13 12 22 19 27 27 27 26 28 29 43 49 52 54 54 54 54 55 56 56 55 55 57 57 56 58 58 59 58 57 59 59 58
5 19 27 28 28 23 16 15 16 18 16 14 14 19 15 21 25 28 28 28 28 38 49 51 53 54 54 54 54 55 56 56 56 56 57 57 57 57 58 57 56 57 58 58
12 14 16 18 14 17 18 18 16 18 20 15 20 23 19 25 26 30 34 34 32 34 49 51 53 53 54 54 54 55 55 54 56 55 57 57 57 57 57 57 56 55 56 57
11 5 13 16 14 14 16 18 19 14 18 19 24 22 22 28 35 36 37 36 38 40 44 51 52 53 53 54 54 55 54 54 55 55 56 56 56 56 57 57 56 56 56 57
18 14 17 14 12 14 14 17 17 18 25 23 24 27 27 34 36 37 38 39 38 49 51 51 52 53 53 53 54 55 55 55 55 55 55 55 55 56 56 56 56 56 56 57
27 24 24 27 16 15 15 18 16 22 15 16 20 24 23 29 34 38 38 39 41 39 49 51 52 53 53 53 54 55 55 55 56 56 55 54 55 55 55 56 55 55 56 56
29 27 26 28 24 20 15 17 22 20 22 16 16 19 28 29 37 38 38 41 43 43 45 49 52 53 54 54 53 54 55 55 55 56 55 54 54 54 54 54 55 55 55 55
31 28 24 25 32 31 29 17 17 21 21 23 21 19 36 36 40 41 43 45 44 42 45 51 52 54 54 54 54 53 54 55 56 56 56 54 54 54 53 54 54 54 55 55
32 28 23 25 29 31 26 24 30 27 27 23 22 23 39 38 38 41 44 47 44 45 45 50 53 54 54 55 54 54 53 53 54 56 56 55 54 54 53 52 52 52 54 54
33 29 28 23 25 30 24 21 30 29 23 25 23 27 37 39 39 41 43 45 45 45 44 44 50 51 54 55 54 54 54 53 53 54 55 55 55 54 53 53 52 52 52 52
31 27 29 28 24 28 29 22 21 29 30 25 24 21 31 38 37 41 43 45 45 45 43 44 45 50 51 52 55 55 54 54 54 53 53 54 55 55 54 53 53 52 53 52
33 29 30 27 27 24 27 27 23 24 30 32 33 19 33 40 39 39 42 46 45 46 45 44 44 47 49 49 50 51 55 55 55 54 53 54 55 55 54 54 53 52 53 53
28 30 28 21 26 24 20 25 23 25 28 32 30 32 38 37 37 39 41 43 44 45 45 44 44 46 46 46 47 48 49 54 55 55 54 54 54 54 54 54 54 53 52 53
24 27 28 25 24 12 23 27 30 33 32 30 34 37 36 35 37 37 41 44 44 44 44 43 45 46 45 44 44 46 47 51 55 55 55 55 54 54 54 54 54 54 54 52
26 27 25 23 22 20 22 30 26 32 32 36 32 37 37 35 38 40 44 45 44 44 43 43 44 45 43 42 43 43 45 46 48 54 54 55 55 55 54 54 53 51 47 44
25 25 25 24 19 13 20 28 32 34 30 36 37 37 35 36 32 36 45 43 42 40 40 39 41 42 40 40 41 43 42 43 43 45 49 54 55 55 54 54 46 41 41 37
22 24 21 22 19 23 28 30 31 24 29 37 36 35 35 33 34 42 43 39 38 37 37 38 39 38 37 38 39 40 40 39 41 42 44 45 52 54 51 45 43 38 35 34
26 19 16 21 19 17 28 32 26 32 34 35 34 35 35 41 43 41 38 36 35 34 33 34 36 36 36 36 37 37 37 38 38 38 38 39 40 42 43 40 36 35 33 31
27 28 23 23 22 27 35 35 39 36 32 34 33 36 42 42 39 38 36 34 32 31 32 32 34 35 35 34 34 34 35 36 36 35 35 35 35 35 36 36 35 33 33 32
34 36 31 25 26 34 37 38 39 38 36 41 42 42 39 38 37 35 34 32 30 30 30 30 31 32 33 33 33 33 33 33 32 32 32 33 32 32 32 32 32 31 30 29
33 33 35 33 37 37 39 40 39 40 39 38 37 37 37 36 35 34 32 30 29 28 28 29 30 31 31 32 31 32 31 30 29 28 28 27 28 27 27 28 28 28 28 28
35 34 32 31 36 38 39 39 41 39 39 37 35 34 34 34 33 31 30 28 27 27 27 28 28 29 29 28 28 30 30 28 28 27 26 27 27 27 26 26 27 29 29 29

GFSCGP_sfc_dewp_108.txt.gz
Dewpoint
15 10 10 11 19 16 19 22 22 25 26 24 24 24 24 24 23 23 23 26 27 27 38 52 54 56 57 57 58 57 57 56 58 59 59 59 59 60 61 61 61 61 60 61
24 14 12 10 16 21 22 20 19 25 26 25 24 23 24 23 22 23 23 24 27 29 43 53 54 55 57 57 57 57 57 57 58 58 58 59 59 60 60 61 61 60 61 60
16 20 22 16 14 14 17 19 21 22 24 24 22 18 14 17 21 23 25 28 30 30 31 50 54 54 55 56 56 56 56 57 57 56 58 57 58 59 59 59 60 61 59 58
16 16 18 21 17 12 10 15 18 19 18 14 19 11 14 18 19 27 28 28 29 30 34 46 53 54 55 56 55 55 56 56 56 56 56 55 56 57 58 59 60 60 58 56
12 18 16 16 18 12 11 13 13 13 16 13 12 10 12 20 23 21 25 29 32 30 32 42 52 54 55 55 55 55 56 55 55 55 56 56 55 57 59 57 59 57 57 56
3 18 21 16 18 16 15 14 14 15 15 12 12 12 12 14 16 27 35 37 41 40 31 44 52 54 54 54 55 55 55 55 54 55 57 55 55 58 57 57 57 56 56 56
1 8 13 17 15 24 19 18 17 17 14 13 14 15 13 20 24 34 37 39 40 47 37 48 52 53 54 54 54 54 55 55 55 55 57 57 56 58 57 56 56 57 56 57
5 3 10 14 16 16 21 21 19 14 18 17 22 16 21 24 32 37 40 41 42 42 46 48 51 52 53 53 53 54 55 55 55 55 56 57 57 58 58 57 56 57 57 57
15 9 14 12 14 15 16 16 20 16 23 20 20 25 27 33 35 38 40 42 42 44 45 49 51 53 53 53 53 54 53 54 54 54 56 56 56 57 57 57 56 57 58 58
27 23 26 22 13 15 16 19 17 19 13 12 17 23 23 32 34 38 40 41 42 44 45 50 52 52 53 54 54 54 53 53 53 54 54 55 55 56 57 57 56 56 57 58
32 26 25 30 21 13 14 17 18 20 21 15 14 18 27 27 35 40 42 42 43 43 46 52 52 53 53 54 54 54 54 54 54 54 54 53 53 55 56 56 56 56 56 57
33 29 23 24 34 33 25 18 18 19 17 22 19 17 37 39 40 41 41 45 44 43 44 49 53 54 54 53 54 54 55 55 55 55 55 54 53 54 54 55 55 56 56 56
34 28 23 25 29 32 26 25 29 20 25 22 21 20 37 40 41 42 44 45 45 42 43 45 50 53 54 54 54 53 54 54 55 56 55 53 53 53 54 54 55 55 55 55
35 32 26 23 25 27 30 24 23 24 19 18 23 31 36 39 40 41 43 45 46 45 45 44 46 49 51 55 55 54 53 53 54 55 56 55 53 53 53 53 53 54 55 55
32 28 29 25 26 27 30 33 27 29 27 21 26 23 27 39 41 42 44 45 45 45 46 45 46 46 47 49 52 55 54 54 53 53 54 55 55 54 54 53 52 52 53 54
32 26 30 24 21 19 28 30 32 27 30 32 30 30 39 40 42 44 46 45 44 45 46 46 46 45 45 45 47 48 50 54 54 53 53 54 55 54 54 54 53 52 52 52
27 29 26 19 25 23 23 27 27 28 28 30 25 33 38 39 41 43 43 44 44 45 44 43 45 46 43 43 44 45 47 49 54 54 53 53 54 55 54 54 53 52 52 53
26 25 27 24 25 9 20 30 28 30 32 30 33 37 38 38 39 43 44 44 44 43 42 42 42 44 41 41 41 43 45 46 48 54 54 54 54 54 54 54 54 53 52 52
28 25 23 22 21 19 23 28 28 29 32 35 36 38 40 43 43 43 44 44 42 40 39 39 41 40 38 38 40 42 43 43 44 45 50 55 55 54 54 54 54 53 52 50
25 26 24 24 18 15 20 26 29 35 30 39 38 37 40 40 36 40 41 40 38 37 37 37 39 38 37 37 37 39 40 40 40 41 43 46 49 54 53 53 53 46 47 40
23 23 21 22 21 22 25 28 31 26 27 38 37 39 39 32 36 41 38 36 36 34 34 35 37 35 35 35 36 37 37 37 38 39 39 40 42 50 54 52 45 42 37 34
26 23 18 20 18 16 26 30 28 33 37 39 36 36 41 41 39 38 36 34 32 32 33 33 34 34 34 33 34 34 34 34 36 36 36 36 37 38 43 44 40 37 35 32
23 30 25 24 21 25 32 35 37 38 33 37 35 43 43 40 38 36 34 32 31 31 30 31 32 32 32 32 32 32 32 32 33 33 33 33 33 34 35 36 35 34 34 32
33 34 30 29 29 34 38 39 39 41 41 41 40 40 38 37 35 34 32 30 29 29 29 29 30 30 30 30 30 31 30 30 29 28 28 29 29 30 31 32 32 32 32 31
32 33 33 31 35 37 38 38 41 39 37 36 36 36 36 34 32 32 30 29 28 28 28 29 29 29 27 27 28 29 29 29 28 28 28 27 28 28 28 28 28 28 30 31
36 33 31 31 37 37 36 37 40 37 36 35 33 32 32 32 31 30 28 27 27 26 26 26 26 26 27 25 25 26 27 27 27 26 27 27 27 27 27 27 27 31 30 30

GFSCGP_sfc_dewp_114.txt.gz
Dewpoint
15 13 2 -2 4 4 7 7 7 8 12 21 20 19 20 22 24 26 27 28 28 29 30 30 31 39 51 53 54 58 61 63 63 63 63 63 63 63 63 63 63 62 63 62
7 10 6 -1 -1 1 8 8 7 6 6 15 15 12 13 15 19 24 25 25 25 25 25 26 30 43 54 54 56 58 59 62 62 62 62 62 61 62 61 62 63 63 62 62
8 2 2 5 10 7 8 7 6 6 8 10 12 11 12 13 14 16 18 19 19 22 23 30 33 39 50 55 58 57 59 61 63 63 61 61 61 61 62 62 63 62 62 62
11 6 2 2 11 8 7 6 8 9 9 7 11 5 6 12 12 13 17 21 26 31 37 38 37 37 45 55 58 58 59 60 61 62 61 60 58 56 59 60 61 62 62 62
13 9 8 7 3 9 9 9 12 14 13 12 9 8 6 7 7 15 19 29 38 41 44 45 43 40 41 55 58 59 60 60 61 62 60 58 56 57 59 60 61 62 62 62
15 15 12 11 8 5 12 15 14 13 12 10 9 9 3 4 14 16 34 38 42 43 45 46 48 45 46 57 58 59 59 59 60 60 60 58 58 58 59 59 60 61 61 61
18 9 10 12 11 10 10 13 5 6 8 4 4 7 8 9 22 27 36 41 42 44 48 48 48 49 50 55 56 58 58 58 58 59 58 58 59 58 57 57 58 59 59 57
22 13 10 10 11 6 9 11 5 -1 2 4 10 10 9 13 20 37 40 41 43 46 50 50 51 53 53 54 55 57 57 56 57 59 58 59 58 57 57 58 57 59 58 57
24 22 14 13 9 7 8 9 9 4 5 9 6 13 11 20 17 37 40 41 44 47 51 51 52 54 54 54 54 56 56 56 57 58 58 58 57 57 56 58 59 58 58 56
31 23 20 22 7 8 6 8 6 4 2 -0 -2 7 11 22 29 37 40 41 44 48 50 52 53 53 54 53 54 56 56 56 56 57 57 56 56 57 58 60 59 58 57 56
33 31 22 20 7 3 11 15 10 5 8 1 3 7 18 28 34 38 40 41 44 47 49 51 52 54 54 54 54 55 55 56 56 55 56 56 56 56 58 59 59 58 58 56
33 32 25 22 29 26 8 14 15 11 8 9 9 7 32 32 36 40 40 41 43 45 47 48 50 50 50 54 54 54 55 56 56 56 55 55 56 57 58 58 58 58 57 56
30 29 19 20 27 34 30 11 16 19 13 12 14 9 36 38 38 41 41 42 41 43 43 44 44 46 47 48 53 54 54 55 56 55 54 55 56 56 56 58 58 58 58 57
29 33 29 22 29 29 31 32 27 14 16 13 11 12 33 35 38 41 42 44 42 42 42 44 45 45 45 46 47 48 54 55 55 55 55 55 55 56 56 57 57 58 57 57
27 24 30 27 26 20 26 31 32 27 17 15 12 9 21 32 38 42 43 43 43 43 45 44 45 45 44 44 45 45 48 50 54 55 55 55 56 56 56 57 57 57 58 57
26 23 24 20 24 22 19 28 27 29 29 20 18 13 17 31 39 41 41 42 43 42 42 43 43 42 42 42 43 44 45 47 50 53 55 55 55 54 56 56 56 57 57 57
27 23 19 16 18 23 22 28 25 24 26 28 26 25 36 35 39 42 42 43 42 41 41 41 40 39 40 41 42 44 44 46 47 48 54 56 54 54 54 55 55 55 56 56
28 25 20 19 18 18 21 28 26 25 26 30 29 34 40 41 42 42 43 42 40 39 39 39 38 38 38 38 41 42 42 42 42 42 44 45 51 55 55 55 54 55 55 56
29 27 21 18 17 12 24 22 28 28 28 35 32 38 41 41 40 39 39 39 38 38 38 38 37 36 36 36 38 39 38 40 38 38 40 41 43 46 50 55 55 55 55 55
26 29 25 18 14 13 22 22 25 31 32 38 37 39 39 38 37 40 38 37 36 36 36 36 36 34 33 34 36 35 36 36 36 36 38 39 39 41 44 46 55 55 55 55
23 25 22 20 17 14 25 28 31 29 33 40 41 40 38 38 40 40 36 35 35 34 33 34 34 32 32 33 34 33 33 33 33 35 35 36 36 37 40 42 48 53 50 44
26 24 26 23 20 15 28 29 30 34 39 42 41 41 40 40 38 36 35 34 33 32 32 32 32 31 30 30 31 30 31 31 32 32 32 33 34 35 36 39 39 40 40 36
27 31 29 24 21 29 33 36 40 40 39 42 40 40 41 39 36 34 33 32 31 31 31 31 30 29 28 28 28 28 30 30 30 31 31 31 32 33 33 35 35 35 35 33
28 29 31 32 35 35 35 37 38 38 40 42 41 39 38 36 34 32 30 29 30 29 29 28 28 27 27 26 26 27 28 30 29 29 29 30 30 31 31 32 33 33 32 31
31 33 31 31 31 33 32 34 37 37 36 34 34 34 33 33 31 30 30 29 29 28 27 27 27 26 24 25 24 26 27 29 28 29 29 29 30 30 30 30 31 31 32 31
35 30 28 28 33 33 31 34 35 33 34 36 32 31 31 31 30 30 29 29 28 27 26 26 26 25 24 23 23 25 26 28 28 27 27 28 28 28 28 27 27 30 29 29

GFSCGP_sfc_dewp_117.txt.gz
Dewpoint
13 7 9 1 3 2 -0 1 1 8 8 10 12 13 14 20 21 24 25 26 28 30 30 31 34 34 34 42 47 50 54 62 64 64 64 64 62 63 63 63 64 65 66 64
11 7 4 -2 3 -1 -5 -2 3 1 1 5 6 11 18 17 16 19 22 24 26 28 29 30 32 35 40 41 51 52 55 59 63 64 64 63 63 63 63 62 63 64 64 64
8 7 6 5 2 1 1 -1 -0 -1 -0 3 7 5 7 9 12 12 13 17 21 24 26 25 28 32 37 46 52 53 55 58 62 63 63 62 62 63 61 61 62 63 63 63
12 11 8 5 3 1 3 1 1 -3 0 -1 6 2 3 6 8 11 13 17 18 19 20 22 26 32 38 45 52 54 55 57 63 64 62 62 60 59 60 60 61 62 63 62
16 14 10 7 6 4 -1 3 7 5 4 6 1 -4 1 5 7 11 14 16 20 27 33 35 35 36 36 43 53 57 56 57 63 63 62 61 60 59 58 58 60 61 62 63
14 15 17 12 10 9 10 5 6 11 9 7 7 1 -2 1 8 12 19 22 30 37 39 40 41 46 42 54 57 59 57 57 61 62 62 61 61 58 57 57 58 61 62 62
15 14 13 14 11 11 10 10 4 9 9 8 4 2 4 6 6 12 26 35 39 41 43 43 44 46 44 52 57 58 58 57 61 62 62 61 60 59 58 58 57 59 61 62
14 15 14 24 21 10 9 9 7 5 5 4 -1 -1 0 5 7 19 31 37 40 42 46 46 49 50 51 54 56 56 57 59 59 61 61 60 59 58 57 57 56 57 60 60
23 18 21 20 20 20 8 7 7 10 7 6 -1 0 6 8 11 30 35 37 41 44 47 49 51 53 54 54 53 55 57 58 58 60 61 59 59 57 57 57 58 58 59 60
28 24 20 21 30 25 10 6 7 9 6 3 -2 3 3 10 15 28 32 37 43 47 49 51 52 53 53 53 54 56 57 57 57 59 59 57 58 57 57 59 59 59 60 59
27 31 21 27 26 16 7 6 4 7 8 4 2 1 9 10 16 23 32 39 43 46 48 49 51 52 53 55 54 55 56 56 57 58 58 57 56 57 57 59 59 59 59 58
32 31 23 21 27 32 26 7 6 5 6 5 4 2 21 17 25 28 38 40 44 45 46 47 49 50 50 51 54 54 55 57 57 57 57 57 55 56 57 58 59 59 58 57
27 25 21 17 26 28 27 16 7 10 8 5 9 5 26 24 32 38 40 40 42 43 43 44 45 46 48 48 48 49 55 55 57 57 56 56 56 56 57 57 58 59 57 56
28 28 26 23 27 26 30 30 17 14 16 7 6 5 33 25 25 39 39 40 41 41 43 44 44 45 45 46 46 47 48 50 56 56 55 55 56 56 56 58 58 58 57 56
25 24 25 20 16 21 25 30 23 23 25 17 13 7 21 28 32 38 40 40 40 42 42 42 44 45 44 44 45 46 46 47 49 52 54 55 56 57 57 57 57 58 58 57
26 23 21 18 21 21 26 32 30 22 19 16 15 16 17 32 35 36 39 40 42 41 41 41 41 41 43 43 43 44 45 46 46 46 50 55 55 55 56 56 58 58 57 58
27 26 22 15 17 24 28 28 28 30 32 23 23 22 34 24 38 39 41 43 42 40 40 39 39 39 39 42 43 43 43 44 43 43 44 46 54 55 56 55 55 56 57 57
26 26 22 17 19 22 27 24 31 29 27 31 32 36 39 40 43 43 43 41 40 39 39 38 37 37 37 38 41 42 41 41 41 40 40 41 43 47 53 55 55 55 57 57
26 27 24 18 16 20 24 23 22 25 28 35 32 36 41 40 40 39 38 39 38 38 38 37 36 35 35 36 37 38 38 38 38 38 39 39 40 41 44 50 55 55 55 56
24 29 26 20 14 15 23 23 24 27 30 36 39 40 40 40 38 37 37 36 35 35 35 35 35 34 34 34 35 35 35 35 35 36 37 37 39 38 40 42 45 53 56 55
23 25 23 20 20 15 26 27 31 28 32 39 39 41 41 39 39 38 37 35 34 34 34 34 33 32 31 32 33 32 32 32 33 35 35 35 36 37 38 40 43 46 49 44
22 25 28 23 19 18 33 30 32 37 39 39 40 41 39 38 38 37 36 34 33 33 32 32 31 30 29 29 30 29 30 30 32 32 34 34 34 35 34 37 39 40 40 36
27 29 28 26 26 35 35 36 38 37 38 38 42 42 40 37 35 34 32 31 30 30 29 29 29 29 29 28 28 28 30 30 31 31 31 32 32 33 33 33 35 35 35 34
26 31 29 27 30 32 33 34 36 37 37 38 37 38 37 34 32 31 30 30 29 28 28 28 28 26 27 26 26 27 29 30 30 30 30 30 31 30 31 32 32 32 32 32
31 35 31 27 28 30 30 34 35 34 35 37 36 33 33 32 30 30 29 29 28 28 27 27 27 26 25 25 26 27 28 30 29 29 30 30 30 29 28 28 30 30 30 31
34 31 28 28 33 32 31 34 35 33 33 34 35 33 30 30 30 30 30 29 28 27 27 26 26 25 24 24 25 26 28 29 29 28 28 29 28 28 27 26 26 29 28 28

GFSCGP_sfc_dewp_120.txt.gz
Dewpoint
10 8 7 3 8 6 4 3 -0 1 3 5 11 11 12 14 19 22 24 27 28 30 31 32 37 41 42 46 52 53 59 63 66 66 66 65 64 65 65 65 65 65 65 65
10 8 6 5 4 0 -1 -0 2 1 -2 2 3 3 10 10 13 20 22 23 27 28 30 34 39 44 48 47 51 54 53 62 63 65 65 64 64 64 63 64 64 64 64 65
11 11 11 8 8 5 5 4 3 2 -0 -1 3 6 6 7 10 13 17 15 16 25 29 32 35 42 48 49 55 54 54 57 62 65 65 64 63 63 63 63 63 63 63 64
16 14 14 15 12 9 7 6 3 -0 1 -4 -0 1 4 4 7 10 11 14 17 17 21 30 32 35 43 50 56 56 56 56 61 65 63 63 61 61 61 62 62 63 63 63
13 11 9 10 8 9 12 12 7 3 2 5 -0 -4 -0 4 4 5 9 15 18 19 22 24 26 29 42 47 56 57 57 57 63 63 63 62 61 61 61 61 61 61 62 62
11 12 11 10 15 21 21 16 10 11 8 3 5 2 -1 0 3 2 10 17 20 27 36 39 43 46 46 58 59 60 58 57 64 63 63 62 62 61 60 60 61 61 61 62
12 11 12 15 17 19 20 21 9 9 9 5 5 4 7 8 4 5 16 32 37 41 43 44 43 46 49 56 60 60 59 58 63 63 63 63 62 62 60 59 59 60 61 62
12 13 13 17 19 22 29 22 12 7 7 4 5 3 5 9 6 7 30 37 39 41 46 47 50 51 52 57 59 58 58 58 62 62 62 63 61 61 60 60 59 60 61 61
19 13 17 18 18 21 27 16 14 12 12 10 5 4 7 6 5 6 34 37 39 44 46 50 52 54 54 55 56 57 57 58 60 61 61 61 61 60 59 59 59 59 60 61
19 20 18 18 22 26 27 23 16 11 7 5 5 7 3 4 5 13 34 37 44 48 49 51 52 53 53 53 55 56 57 59 59 59 60 61 59 59 59 59 59 60 61 59
22 25 19 22 29 30 31 30 20 14 8 6 9 11 11 17 11 27 33 40 45 47 49 49 50 51 52 54 54 55 56 57 58 58 59 60 59 59 58 58 60 59 60 59
23 27 19 18 30 27 23 27 27 10 7 9 10 9 12 25 25 29 30 39 45 48 48 48 49 50 49 50 50 50 56 57 58 58 58 59 59 58 58 58 60 60 59 58
23 19 20 15 19 21 20 20 24 27 25 12 15 11 10 19 37 25 39 45 47 44 44 45 45 46 46 47 47 48 49 50 55 58 58 57 56 56 57 58 59 59 58 57
27 25 24 20 23 23 22 24 29 30 23 13 8 7 6 23 36 45 46 47 50 44 43 44 44 44 45 46 46 47 47 49 50 52 57 57 56 56 56 58 59 58 58 56
22 23 25 21 17 16 22 22 30 27 22 26 17 8 12 31 38 45 43 46 43 41 42 43 43 43 43 44 45 45 46 46 47 48 50 54 57 57 56 57 58 58 58 56
23 23 23 20 18 15 16 28 34 26 22 21 22 19 32 29 40 42 43 45 43 41 40 40 40 41 43 43 43 43 44 44 45 44 44 45 48 55 57 58 58 58 57 56
24 24 23 20 16 18 24 32 29 34 34 33 28 27 35 41 42 41 40 45 41 39 38 38 38 38 39 43 43 42 42 42 42 42 42 42 43 45 50 56 58 57 57 57
22 24 24 22 21 19 31 26 22 26 35 37 35 38 41 40 41 43 43 44 40 39 37 36 36 36 36 38 40 41 40 40 39 40 40 40 41 41 43 48 56 57 57 57
21 24 25 20 16 16 27 25 25 25 29 34 37 37 40 38 38 38 37 38 39 38 36 35 34 34 34 35 36 36 37 37 37 37 38 38 39 39 40 42 45 49 56 56
23 25 27 24 20 14 28 25 31 28 29 38 38 38 41 40 34 36 34 34 34 34 34 33 33 32 32 33 34 33 33 34 34 35 36 38 38 38 38 39 41 45 48 55
22 24 24 24 21 25 32 31 31 22 29 38 36 38 37 34 38 37 34 34 33 32 32 32 31 29 29 30 31 31 31 31 33 34 34 35 36 36 36 37 40 41 45 42
23 23 23 24 20 21 34 32 28 34 36 37 35 39 40 39 37 36 33 31 30 29 29 29 29 28 28 28 29 29 29 30 32 32 32 32 34 34 35 35 36 37 38 36
26 31 29 30 28 34 31 32 34 35 35 36 35 40 38 34 31 31 29 29 28 28 28 28 27 27 27 27 27 28 29 30 30 31 31 31 31 31 32 32 33 34 34 34
23 30 29 25 31 29 31 31 33 34 34 36 36 36 34 32 31 30 30 29 27 27 27 27 26 25 25 26 26 27 30 30 29 29 29 29 29 28 29 31 31 31 32 33
32 31 29 27 27 29 29 32 33 33 34 34 37 36 31 30 30 30 29 28 28 27 26 26 25 25 24 25 26 27 29 30 28 28 28 28 28 27 27 27 28 28 29 30
33 32 27 25 33 31 31 35 33 35 33 34 34 35 35 30 29 28 28 27 26 25 25 25 24 24 24 24 25 27 29 29 29 27 27 28 27 26 26 25 25 29 29 28

GFSCGP_sfc_dewp_123.txt.gz
Dewpoint
13 10 9 8 9 9 8 7 4 4 3 1 -0 -1 -1 5 11 12 18 21 25 28 29 27 28 28 28 30 42 60 63 65 67 67 66 65 64 64 64 66 65 64 66 65
11 11 13 14 13 12 11 8 7 6 4 2 0 -2 -3 1 4 8 9 10 18 26 28 29 33 34 35 37 47 55 61 64 66 67 66 65 65 64 64 66 65 65 66 65
14 16 14 12 10 12 13 11 11 9 8 6 2 -1 -2 1 7 6 6 6 11 17 16 25 31 35 39 40 48 53 58 64 64 65 65 64 63 62 62 63 63 64 64 64
16 16 11 11 10 9 7 14 15 14 15 6 6 -2 -2 1 5 5 5 5 9 10 11 18 27 32 37 41 50 49 54 61 63 65 64 63 62 61 61 62 63 63 63 64
16 15 12 10 10 13 17 19 18 19 17 13 7 1 -3 -0 1 1 3 5 8 9 10 14 24 30 32 40 51 51 52 59 62 64 64 62 62 61 62 62 62 62 62 62
19 16 12 12 14 16 17 22 21 19 17 11 9 8 -2 -0 -2 0 2 4 7 6 10 16 30 36 51 50 53 53 53 58 63 63 63 62 61 61 61 61 60 61 62 61
17 16 17 15 14 16 19 25 20 14 12 9 9 8 5 7 3 2 5 10 37 34 35 43 48 51 57 57 57 57 57 61 61 62 62 62 61 61 60 60 60 59 60 61
18 17 15 15 15 17 18 20 19 16 11 9 7 7 3 7 7 6 7 37 41 45 51 52 53 53 54 57 56 56 56 57 61 61 62 62 61 62 61 61 60 60 60 61
19 15 16 15 18 24 30 28 29 27 22 16 10 10 9 3 6 8 11 37 44 49 51 52 52 52 52 54 55 55 55 56 59 61 62 62 62 61 61 60 60 61 61 61
24 16 14 19 20 25 26 32 27 22 12 8 10 10 8 10 11 8 23 39 50 52 51 51 52 52 53 53 55 55 56 57 57 59 60 61 60 60 59 59 58 59 60 60
23 24 18 21 21 18 25 28 30 31 21 10 9 9 13 15 16 25 31 47 50 50 50 50 51 50 50 51 52 53 55 57 57 57 59 60 59 59 59 58 59 60 59 59
25 22 18 15 18 21 24 22 28 26 24 22 13 7 8 11 34 38 40 50 50 50 49 48 48 48 48 48 49 50 51 52 55 58 58 59 60 59 58 58 59 59 59 58
23 19 18 15 18 24 22 21 19 28 30 23 17 11 13 32 41 46 47 48 47 46 45 46 46 46 46 47 47 47 48 49 52 54 58 58 58 58 58 57 59 59 57 56
27 25 25 18 19 23 23 21 20 26 28 22 17 21 29 35 41 44 44 44 48 47 46 44 44 44 45 45 45 46 46 47 48 50 54 55 56 57 57 58 59 58 57 56
22 18 20 22 22 21 21 21 32 32 31 25 25 26 32 39 42 44 44 43 46 46 44 44 43 43 44 44 43 43 43 44 45 46 46 47 50 53 57 57 59 57 57 55
20 19 22 21 22 22 19 31 33 33 33 32 32 31 39 41 41 41 39 39 41 41 40 39 40 43 43 43 42 41 41 41 43 43 43 44 45 48 51 56 58 58 57 55
20 21 21 19 22 21 26 32 32 32 34 33 30 36 40 39 39 39 40 41 41 40 35 35 35 37 40 42 42 40 40 39 39 39 40 42 42 44 44 47 56 57 57 56
19 20 22 21 22 16 28 26 27 31 33 34 33 36 40 40 42 43 43 43 42 41 35 34 34 33 34 37 40 39 37 37 37 37 38 39 40 41 42 43 45 50 56 56
30 29 25 22 22 20 26 25 28 28 32 34 34 35 38 38 37 35 36 37 37 34 33 32 31 31 31 32 34 33 34 35 35 35 36 37 37 39 39 39 40 43 47 54
24 31 25 25 22 20 25 28 30 27 27 35 34 35 36 39 32 35 33 33 32 33 30 29 29 28 28 29 31 31 31 32 33 34 34 35 35 37 37 37 39 41 43 47
23 24 23 24 22 27 28 30 29 20 25 34 33 36 35 32 35 36 34 29 29 29 30 29 28 27 27 28 30 29 30 31 32 33 33 32 32 34 35 36 37 38 41 41
24 23 20 25 22 16 30 27 25 31 35 35 33 36 37 36 36 35 34 29 28 27 27 27 26 26 26 27 29 28 29 30 31 31 31 30 30 30 32 34 35 35 36 34
25 27 25 26 26 33 31 30 33 34 34 34 35 36 37 33 32 31 28 28 27 26 26 26 25 25 26 26 27 28 30 29 30 29 29 29 28 28 29 30 31 33 34 33
26 30 26 27 30 30 30 30 31 35 33 35 36 37 36 33 33 28 27 27 26 25 25 25 24 24 25 25 27 28 30 29 28 28 28 27 27 26 27 27 28 28 29 32
27 27 24 26 28 28 31 30 30 33 34 33 35 35 35 34 29 27 26 25 25 25 24 25 24 23 23 25 26 29 30 29 28 28 28 27 26 25 25 26 27 27 28 29
30 23 19 17 29 29 29 33 31 30 34 33 33 34 35 31 29 27 26 25 24 24 23 22 22 23 23 25 26 29 30 29 28 26 26 27 26 25 25 24 25 29 28 29

GFSCGP_sfc_dewp_126.txt.gz
Dewpoint
13 10 9 10 12 13 13 12 12 13 13 10 8 9 7 5 2 0 2 11 13 19 24 26 26 27 27 26 47 61 62 65 67 66 65 65 64 65 65 66 66 66 65 64
13 12 16 13 12 11 10 9 8 9 12 14 12 11 11 9 5 3 0 6 12 13 10 17 30 30 29 28 34 57 62 64 66 66 66 65 65 64 65 65 65 65 65 65
10 15 16 13 13 11 10 9 10 14 17 17 15 12 10 9 8 4 1 1 7 8 8 10 17 29 34 29 32 49 61 64 66 66 66 64 63 62 63 65 65 65 66 65
16 18 16 14 12 11 9 17 17 16 16 14 16 13 15 13 12 9 2 2 6 7 8 12 13 26 35 37 43 46 60 63 66 66 65 64 63 63 63 64 65 64 65 65
13 18 16 13 11 14 14 16 17 19 20 18 15 12 12 12 9 7 2 2 6 7 9 10 12 22 30 37 48 55 61 63 65 66 65 64 63 63 63 63 62 63 63 64
18 19 17 16 15 14 14 18 19 19 22 18 16 14 12 10 10 9 4 3 6 6 7 8 10 13 38 46 51 52 61 62 64 65 64 63 63 62 61 62 62 62 62 63
15 17 19 17 14 16 18 19 18 14 14 11 12 11 11 11 11 10 8 7 8 9 28 29 43 54 55 55 56 58 60 61 63 64 64 63 62 62 61 61 61 61 61 61
18 13 16 17 16 16 17 25 23 16 15 16 21 13 8 10 10 10 8 8 38 51 52 52 53 55 55 55 55 56 57 60 61 61 62 62 62 61 61 61 60 60 61 61
19 16 17 15 16 19 27 24 27 27 28 22 18 13 12 12 13 13 13 12 51 51 51 52 52 53 53 54 54 55 56 58 59 60 60 60 61 61 61 60 61 60 61 61
20 15 14 18 17 23 26 23 24 24 19 16 10 10 11 12 13 16 26 32 45 50 51 51 51 51 52 52 53 54 55 56 57 59 61 61 61 61 61 61 61 61 61 61
21 22 17 20 20 15 19 24 24 28 25 21 17 11 30 31 39 44 46 41 43 49 49 49 49 50 50 50 50 51 52 53 56 58 59 60 60 59 60 59 60 61 61 61
23 21 17 14 18 20 19 19 23 24 20 24 25 17 28 30 42 42 43 47 48 47 47 47 47 47 47 47 48 48 49 50 53 57 58 58 60 59 59 59 59 60 59 59
20 17 16 10 17 21 19 21 22 26 26 24 21 20 28 33 41 43 42 44 46 45 45 45 45 44 45 45 45 45 46 47 49 53 57 57 57 59 58 59 59 59 58 58
25 23 16 13 17 20 20 23 27 32 27 24 25 24 31 37 39 42 42 43 47 45 44 43 43 43 43 43 43 43 43 44 46 47 49 50 51 56 58 59 59 58 57 56
21 17 18 16 17 19 21 29 29 31 30 26 28 30 35 38 41 41 41 40 40 43 44 43 43 43 42 42 42 41 41 41 43 43 44 45 48 51 55 58 58 58 57 56
20 17 19 18 18 20 21 27 28 32 30 26 26 28 34 40 40 40 39 39 39 39 39 40 41 41 41 40 40 39 39 39 39 40 40 41 43 46 49 50 56 57 57 56
20 20 19 15 18 20 26 28 26 31 30 31 26 31 35 39 39 40 41 40 40 39 38 34 32 33 39 39 38 37 37 38 38 38 38 38 39 41 43 45 49 56 56 55
21 20 20 18 21 13 25 25 25 27 32 32 31 32 35 38 37 36 39 41 39 37 37 34 30 29 34 34 34 35 35 35 36 36 35 36 37 38 39 41 43 45 50 55
28 28 24 23 21 21 23 23 25 26 28 31 31 32 35 38 36 35 34 32 31 30 29 28 28 28 31 31 31 32 33 34 34 34 34 34 35 36 37 37 39 42 44 49
26 30 25 23 19 17 23 25 27 28 24 31 32 33 34 35 27 31 30 29 29 28 27 26 27 27 29 29 30 30 30 31 32 32 32 32 32 34 34 35 37 38 41 45
24 24 23 22 20 23 27 27 27 19 22 32 33 34 35 31 34 35 35 29 26 26 26 26 26 26 27 28 30 29 29 30 31 31 31 30 30 31 32 34 35 36 38 37
23 21 18 21 18 13 29 25 22 28 31 34 34 35 35 35 34 31 28 28 27 25 25 25 25 25 26 27 28 30 28 29 30 29 29 28 29 29 30 30 32 34 35 33
16 21 19 21 22 31 29 28 30 33 32 33 34 36 36 34 33 29 27 26 25 24 24 25 24 25 25 27 28 29 29 28 28 28 27 27 27 28 29 27 28 30 33 33
22 29 24 26 30 29 30 29 29 31 30 33 35 35 35 31 31 27 25 25 24 24 24 24 23 23 25 26 28 30 29 28 27 27 26 26 26 26 27 27 27 27 28 32
21 24 22 25 28 30 30 29 30 29 33 31 34 34 34 31 28 28 25 24 23 23 23 23 23 23 24 26 27 29 29 27 26 27 26 25 25 25 26 27 27 27 28 29
27 21 19 18 28 27 29 31 30 30 31 34 31 31 34 31 28 26 26 24 22 22 22 21 22 22 23 24 27 28 29 28 27 25 25 25 25 25 24 25 25 29 28 29

GFSCGP_sfc_dewp_129.txt.gz
Dewpoint
13 11 11 12 13 13 12 10 9 8 9 10 13 14 14 15 14 13 12 11 10 7 5 8 17 27 28 29 36 56 63 65 66 66 65 65 65 65 65 66 66 66 65 64
10 12 16 14 14 13 12 10 9 11 13 16 16 15 15 15 14 14 12 11 8 6 4 9 15 18 29 30 33 43 59 63 66 66 65 65 65 65 65 66 66 66 65 64
9 15 18 15 13 11 10 10 11 15 15 14 13 12 11 13 13 14 15 14 12 12 6 4 6 12 21 27 30 42 54 61 65 66 65 64 63 63 64 65 65 65 65 64
15 19 16 15 13 13 12 15 15 13 13 12 16 13 16 16 15 14 13 13 12 12 7 5 7 9 14 21 31 33 51 60 64 66 65 64 63 63 64 64 65 65 65 65
14 17 16 15 14 14 12 16 16 16 16 15 16 16 15 15 13 13 14 13 12 8 5 5 8 8 12 20 35 35 45 59 63 65 65 64 63 63 63 65 65 64 65 65
16 18 17 16 16 15 17 17 19 21 19 16 17 17 14 14 13 15 15 13 12 9 6 6 8 9 17 47 46 52 48 59 63 65 65 64 63 63 63 63 63 64 64 64
17 17 18 18 14 16 17 17 17 15 13 10 14 19 17 18 17 13 14 13 13 12 11 14 11 11 46 51 54 56 60 62 65 65 65 64 63 63 63 63 62 63 63 63
16 12 15 17 16 14 17 26 20 14 11 14 20 18 15 17 29 32 28 14 37 49 50 51 52 53 54 54 56 58 60 61 64 65 64 64 63 63 62 62 62 62 62 62
17 15 17 15 17 17 20 22 22 24 23 20 16 18 16 23 37 40 42 43 48 49 49 51 51 52 53 54 55 56 59 60 61 61 61 61 62 62 62 62 62 62 62 62
19 15 16 18 19 24 24 22 21 26 16 12 16 15 16 23 35 36 40 42 42 47 49 50 50 51 51 52 53 54 56 57 59 60 61 61 61 61 61 61 60 60 61 60
19 19 16 18 18 15 18 20 23 25 24 19 16 13 20 32 36 38 41 42 45 47 49 50 49 49 49 50 50 50 51 53 56 58 59 60 60 61 60 61 60 60 60 61
21 20 16 13 18 20 19 17 21 23 19 20 23 19 33 39 39 41 40 42 46 47 47 47 46 45 45 45 46 47 48 49 51 56 57 58 60 58 59 59 60 60 60 61
20 17 13 10 14 15 16 15 19 31 30 24 23 19 29 35 37 42 41 42 44 45 45 44 43 43 42 42 42 43 44 45 47 49 51 52 53 59 58 58 59 59 59 60
26 21 12 8 12 19 18 17 23 30 24 24 22 26 33 31 35 39 40 40 39 39 42 43 41 41 41 41 40 40 41 42 43 44 45 46 49 51 57 58 59 58 58 58
20 15 21 21 20 17 15 20 27 27 29 24 25 25 32 32 36 39 40 39 39 38 38 37 39 38 37 37 38 38 39 40 40 41 41 42 44 47 49 52 57 58 57 57
19 12 18 16 18 18 18 28 25 29 29 24 23 23 32 36 38 40 40 39 38 38 36 36 35 36 35 34 35 36 37 38 38 38 38 39 40 42 44 47 50 56 57 56
18 20 18 16 18 19 24 25 23 26 29 29 24 29 33 33 33 33 37 36 35 36 35 34 33 31 31 32 33 34 35 36 36 36 36 36 37 39 40 42 44 47 50 55
20 20 20 18 21 9 22 28 23 24 31 29 30 31 33 34 34 33 31 31 29 28 28 29 29 30 29 30 31 32 33 34 34 34 33 34 35 36 37 38 40 42 45 48
22 24 21 21 21 21 24 23 23 24 25 27 30 32 34 35 33 32 31 31 32 27 26 26 27 27 28 29 30 30 31 31 32 32 32 32 33 34 35 35 37 39 40 43
29 29 24 22 18 11 21 24 27 26 21 28 31 30 34 32 26 29 34 31 27 25 25 25 26 26 27 28 30 29 29 30 30 30 31 30 31 32 32 33 35 37 39 41
24 23 22 22 20 20 26 27 27 21 17 29 32 33 33 30 31 33 33 28 27 25 25 25 25 25 26 28 29 29 28 29 29 29 29 29 29 30 30 29 31 35 36 35
21 19 16 20 17 10 28 25 21 27 29 31 33 34 33 32 34 32 29 26 24 24 24 24 24 24 26 28 29 28 28 28 28 28 27 28 28 29 29 28 28 32 34 33
17 21 18 20 19 28 29 27 28 30 30 31 33 34 33 29 30 29 25 24 24 24 23 24 23 24 26 27 28 27 29 27 28 27 26 26 27 28 29 28 28 29 31 32
21 29 23 24 25 28 29 28 29 29 32 31 33 32 31 29 29 28 26 22 23 23 22 22 22 23 24 26 27 29 28 27 26 26 25 25 26 26 27 27 27 27 27 28
20 23 22 24 28 30 30 30 29 29 31 32 31 32 31 28 27 26 25 23 22 22 21 21 22 22 23 25 27 28 28 28 26 26 26 25 25 25 26 27 27 27 28 28
24 20 18 17 27 26 29 31 29 29 30 33 29 28 31 28 25 24 24 25 22 21 21 21 21 22 22 24 26 27 27 27 27 24 24 24 24 24 24 25 26 29 28 28

GFSCGP_sfc_dewp_132.txt.gz
Dewpoint
14 14 12 11 13 12 12 11 10 9 9 11 11 14 15 14 14 14 15 16 15 14 14 12 11 10 10 17 29 47 63 65 65 65 64 63 63 63 64 64 64 64 64 64
13 14 15 14 14 12 11 10 9 10 13 13 12 11 11 13 14 15 15 14 15 14 14 14 12 10 20 24 30 33 59 64 65 65 64 64 63 64 64 64 64 64 65 64
10 15 17 14 12 12 12 11 11 12 14 13 12 10 8 12 16 17 17 17 17 15 15 15 15 12 10 17 24 30 38 61 65 65 65 64 65 65 64 64 64 64 64 64
16 19 15 14 12 14 11 14 15 14 13 10 15 11 13 15 16 17 22 24 17 16 15 15 15 14 9 10 18 29 32 47 63 65 65 64 63 62 63 63 64 64 64 64
14 16 14 14 14 15 12 17 17 14 15 16 16 14 16 16 16 17 32 38 31 17 17 15 14 13 9 8 16 27 31 43 56 64 64 64 63 63 63 64 64 64 65 65
15 17 17 15 16 16 16 17 17 21 19 14 16 15 13 16 17 25 36 40 42 42 16 15 14 12 8 13 32 34 34 45 57 63 64 64 63 62 63 64 64 63 64 65
16 17 18 18 15 16 17 20 14 11 9 7 12 16 17 22 19 34 36 39 39 44 42 38 36 28 10 33 41 47 39 46 58 62 64 64 63 63 63 63 63 63 63 64
12 10 15 17 14 13 22 22 14 4 10 10 17 17 20 18 27 33 39 37 43 44 49 50 49 51 51 52 53 54 56 57 60 63 64 65 64 64 63 63 63 63 64 64
16 14 18 15 17 16 17 17 21 14 20 18 16 15 15 30 33 38 39 38 42 46 48 47 48 49 51 52 55 59 60 61 63 64 65 64 64 63 63 63 63 63 63 63
19 14 15 16 19 18 20 20 15 22 13 10 11 12 18 30 33 35 37 41 42 43 44 45 46 46 48 48 50 53 55 57 59 61 63 63 63 62 62 63 62 62 63 62
21 18 14 17 16 13 17 17 21 23 22 17 15 14 26 30 32 35 39 41 41 41 42 43 43 45 45 45 45 46 49 51 54 58 60 61 61 61 61 61 61 61 61 61
22 22 15 11 17 19 18 17 21 19 15 23 23 18 25 26 32 35 39 40 39 38 38 39 40 42 43 41 42 42 44 46 48 51 54 56 59 60 60 60 59 60 59 60
21 16 10 5 9 12 15 15 17 21 26 22 19 17 24 29 34 36 39 39 39 38 37 37 37 37 38 39 39 40 40 42 44 46 48 50 51 53 58 59 59 59 59 60
24 20 8 1 4 16 16 16 17 26 22 24 21 24 25 29 32 39 39 38 37 36 34 35 35 34 34 37 37 38 39 39 40 41 42 44 46 48 51 57 58 59 59 59
17 12 19 18 17 17 16 17 25 19 25 24 24 24 28 32 32 35 35 33 33 34 33 33 33 33 31 32 34 35 37 37 38 38 38 39 42 43 45 48 51 57 57 58
19 9 16 16 16 16 17 27 25 25 28 24 24 22 31 35 33 31 33 33 31 31 32 32 33 32 30 30 32 33 35 35 36 36 36 37 38 39 41 43 46 48 54 56
17 17 18 15 18 19 19 23 23 20 27 27 22 28 33 33 31 31 32 32 31 28 29 30 31 32 32 30 30 31 32 34 33 33 33 34 36 37 38 40 41 43 46 50
19 20 19 18 21 7 18 25 24 23 28 28 28 31 32 33 34 33 30 29 29 26 26 26 28 28 30 30 30 30 31 31 32 32 31 32 33 34 35 36 38 39 42 45
21 23 20 17 21 21 22 24 23 22 24 27 27 30 33 31 34 32 31 29 27 25 25 25 25 26 27 29 30 28 29 30 30 30 30 30 31 32 32 33 34 37 39 42
22 26 26 23 18 9 18 24 27 26 20 28 28 29 32 30 24 27 31 29 25 24 24 24 25 25 27 28 29 28 27 28 28 28 29 29 30 30 30 30 32 35 37 37
24 24 21 21 18 19 25 26 27 20 17 28 30 32 32 29 32 33 31 26 25 24 23 24 24 25 26 28 29 28 27 27 28 28 28 28 29 29 30 30 31 33 35 34
20 17 15 20 18 12 27 24 20 25 28 29 30 33 33 32 31 30 27 24 23 23 22 23 23 24 25 27 28 27 27 26 28 27 26 27 28 28 28 29 30 31 33 33
16 20 18 20 17 26 27 26 28 28 30 30 31 34 34 31 29 29 27 22 22 21 21 22 22 23 24 26 27 26 28 27 27 26 25 26 26 27 28 28 28 28 29 29
21 27 23 24 23 27 28 28 29 28 28 32 32 34 34 30 28 27 26 22 21 21 21 21 21 22 23 25 27 27 27 28 26 25 25 25 25 26 27 27 27 27 27 27
19 23 21 25 26 28 29 28 28 28 30 31 33 32 31 29 26 25 24 23 21 21 21 21 21 21 22 24 25 26 26 26 25 24 24 24 25 25 26 27 28 27 28 27
23 16 16 15 24 25 27 29 29 28 31 30 28 27 27 27 24 23 23 23 21 20 20 20 20 20 21 23 24 25 25 24 25 24 24 24 24 23 24 24 24 27 28 28

GFSCGP_sfc_dewp_135.txt.gz
Dewpoint
16 12 11 13 14 13 12 10 7 7 9 10 9 8 9 12 13 13 15 17 19 26 28 26 26 28 27 30 30 32 39 53 64 64 63 63 62 63 64 64 64 64 64 65
15 14 15 14 13 10 8 6 7 10 12 11 9 10 12 12 13 15 17 22 33 33 36 39 38 28 31 29 31 31 34 41 62 63 64 63 63 63 63 64 64 64 64 64
12 16 15 12 13 10 9 9 10 10 12 14 14 6 12 11 15 17 20 32 35 36 37 38 41 36 29 30 31 28 30 38 59 63 64 64 64 65 64 64 63 64 64 64
17 17 13 13 12 13 8 11 12 13 12 7 16 6 10 13 12 17 22 32 36 38 38 42 44 44 30 31 32 30 30 34 55 64 64 63 63 62 63 63 63 64 64 64
13 15 14 12 11 15 10 15 15 15 14 15 15 14 11 9 14 20 30 35 38 39 42 44 47 41 26 29 33 32 31 34 45 64 65 64 64 64 64 63 64 63 63 64
16 17 16 13 16 15 16 17 18 19 19 12 13 14 8 11 21 32 34 37 40 42 46 48 47 49 37 32 35 34 31 32 41 63 65 65 65 64 64 64 64 63 63 64
14 16 18 17 12 15 17 18 6 2 5 -2 12 11 12 21 30 31 34 37 40 43 44 46 44 46 48 51 32 32 29 30 43 61 64 66 65 65 64 64 64 63 64 64
7 6 15 16 13 11 19 21 13 4 5 6 15 13 11 25 26 30 33 39 40 40 40 43 41 43 44 48 53 37 33 36 47 59 64 66 66 65 64 64 64 63 63 64
14 10 17 15 17 16 15 15 20 19 18 16 13 13 16 24 26 30 34 38 38 38 39 39 38 38 42 43 47 55 54 46 51 60 65 66 66 65 65 65 66 64 64 64
18 11 14 16 18 17 19 19 17 19 13 10 9 11 19 23 27 30 36 38 36 35 37 36 37 36 39 42 43 46 51 54 58 62 64 65 65 65 65 65 65 65 64 64
22 16 14 16 16 12 19 19 18 21 19 15 12 10 24 26 28 33 37 37 36 34 34 35 36 36 36 39 41 42 45 48 50 52 60 64 64 64 64 64 65 65 64 63
23 23 10 9 14 17 17 17 21 20 16 20 19 16 25 28 29 34 36 36 36 35 34 34 34 34 34 35 37 39 41 43 46 48 50 54 57 60 62 62 61 63 62 62
24 18 6 4 11 14 17 14 16 19 22 20 19 13 24 27 30 31 33 35 35 35 33 33 33 32 33 34 35 36 38 39 41 43 44 47 48 50 53 60 62 62 61 61
25 20 17 7 5 13 15 14 15 26 22 21 19 23 22 27 32 31 33 35 34 33 32 32 32 32 33 33 33 33 36 37 38 39 40 42 43 45 47 50 55 60 60 60
20 18 19 15 11 12 12 15 18 25 23 23 23 22 26 30 33 34 33 30 29 30 30 31 30 31 32 33 32 32 34 35 36 36 37 38 41 42 44 46 48 53 59 59
19 6 14 13 13 13 13 20 26 25 25 25 22 21 28 32 34 31 29 30 28 28 29 29 30 31 31 31 31 31 32 33 34 34 34 35 37 38 41 42 44 46 49 55
14 14 16 11 17 19 21 23 23 24 26 26 23 28 30 30 32 32 30 29 28 27 27 28 29 30 31 30 31 30 31 32 32 32 32 32 34 35 36 38 40 42 45 49
18 18 18 17 21 15 21 23 23 22 26 27 26 27 29 30 32 33 30 30 27 25 25 25 26 27 28 30 31 29 30 30 30 30 30 31 32 33 33 35 37 38 42 43
21 21 22 19 19 20 26 26 19 20 23 26 26 27 29 30 30 31 30 28 26 24 24 24 24 25 27 27 29 28 27 29 29 29 29 30 31 31 33 33 34 36 39 39
21 28 26 23 17 14 19 24 26 25 20 26 28 27 28 29 24 26 29 27 24 23 23 23 24 25 25 27 28 27 26 27 27 28 28 29 30 30 31 32 33 35 36 36
21 21 20 21 19 20 25 26 27 20 21 28 30 29 30 28 31 32 29 25 23 22 21 22 23 24 24 26 26 26 26 26 27 27 27 28 29 29 30 31 32 33 34 34
21 22 21 22 19 15 27 24 21 26 27 29 30 30 32 31 30 28 27 23 22 21 20 21 21 22 23 25 25 24 25 26 26 26 26 27 28 28 28 29 30 30 31 32
21 23 21 22 20 27 28 26 28 28 27 30 30 30 33 28 27 26 25 23 22 21 20 21 21 22 23 24 24 24 24 26 25 25 25 25 27 28 30 29 28 29 30 30
23 28 26 23 25 28 29 28 29 28 28 31 32 31 30 28 27 25 24 23 22 23 21 20 20 21 22 23 24 23 23 25 24 24 24 24 26 26 28 28 28 27 27 27
24 28 27 26 25 29 29 29 29 28 30 31 31 29 29 28 26 24 23 22 22 22 22 21 20 21 22 23 23 23 23 23 24 24 24 24 24 25 26 26 27 27 28 28
24 23 24 23 24 28 29 30 29 29 30 29 27 26 26 27 25 23 23 21 20 20 20 21 21 20 21 22 23 25 25 24 23 23 24 24 24 23 24 24 25 25 25 25

GFSCGP_sfc_dewp_138.txt.gz
Dewpoint
16 8 2 8 12 10 7 2 -4 -4 3 7 2 2 1 7 9 13 16 19 21 28 30 34 38 40 43 46 43 37 35 38 37 42 57 62 63 63 63 62 64 65 66 67
9 3 13 12 11 7 2 -1 -2 2 3 8 6 7 7 8 11 15 18 23 29 31 32 36 42 43 46 46 47 44 32 32 32 33 52 61 63 64 63 64 64 65 66 66
4 13 15 12 10 4 1 2 2 1 5 7 11 -0 5 8 10 17 26 29 30 34 37 41 42 44 46 48 49 45 36 31 32 37 45 59 62 63 63 64 64 64 65 65
11 16 12 11 5 7 1 7 7 7 7 0 11 -6 3 6 14 24 27 29 33 38 41 40 41 43 43 46 49 50 43 32 29 35 41 57 59 59 61 62 64 64 64 65
14 14 13 7 6 10 4 11 13 14 12 12 10 7 -2 8 20 23 25 28 36 37 37 39 40 40 39 42 46 51 39 34 32 33 41 55 59 60 60 61 63 65 65 64
14 16 10 8 10 11 12 15 14 17 16 7 6 6 -1 15 22 24 28 34 38 36 37 39 38 38 37 39 43 47 42 31 33 33 41 58 62 60 59 62 63 63 65 64
12 12 15 14 6 11 12 12 1 -1 2 -3 7 7 8 21 23 26 34 37 36 36 37 35 37 36 36 37 41 44 46 30 32 33 41 59 61 62 62 62 63 64 64 63
5 7 12 14 8 7 15 16 13 6 -3 0 7 8 8 20 24 32 38 36 35 35 35 35 36 36 35 36 38 41 48 33 29 32 41 56 61 59 60 61 62 64 64 64
7 8 14 12 13 13 17 17 19 22 16 14 8 8 9 22 24 29 34 35 34 34 34 34 35 35 34 35 37 41 42 52 32 33 43 54 60 60 60 61 63 63 65 64
17 14 12 13 16 17 19 18 21 19 14 6 2 6 13 23 25 29 31 32 33 35 34 35 35 34 34 34 37 37 40 44 51 55 52 56 60 62 62 63 64 65 65 65
17 15 14 14 15 14 18 20 18 21 18 13 8 7 23 26 28 29 30 32 33 34 34 35 35 33 34 33 34 36 38 41 45 48 54 60 62 62 63 64 65 65 66 65
23 17 9 7 13 15 15 16 18 22 17 17 17 14 23 26 29 31 31 31 32 34 34 34 34 33 32 32 33 34 35 38 42 44 46 49 52 56 60 64 65 65 65 65
20 16 3 4 13 19 15 15 14 18 21 19 18 10 18 24 28 31 31 31 31 31 33 33 33 32 31 33 34 33 34 36 39 41 43 43 48 50 50 54 58 63 62 62
24 19 22 10 12 15 16 12 11 22 25 17 15 18 20 26 30 31 31 32 31 30 32 32 32 31 32 32 33 34 33 35 36 38 40 41 43 46 50 52 52 55 62 62
21 18 18 6 -0 2 4 9 14 26 26 25 19 19 22 29 31 32 31 30 28 28 29 32 31 31 31 32 32 34 33 34 35 35 37 38 41 41 46 47 49 51 53 61
18 6 9 -0 1 2 2 13 20 23 25 20 19 19 29 30 31 30 30 28 28 27 28 30 31 31 31 31 31 32 33 34 35 34 34 35 36 37 39 42 44 46 48 52
13 7 7 2 12 14 19 22 24 32 24 26 25 31 30 30 30 32 31 28 27 26 26 29 30 30 31 31 32 32 31 32 33 33 33 33 34 36 36 39 40 41 44 47
10 7 14 13 19 15 24 23 22 24 27 27 26 29 30 29 30 33 29 28 26 25 24 24 25 26 26 29 30 31 30 30 30 30 31 32 33 33 35 35 37 39 41 43
14 16 20 18 13 18 24 24 22 18 20 26 27 28 28 28 30 32 28 27 25 24 23 23 23 24 25 26 27 27 29 28 29 29 30 30 32 32 33 34 35 38 38 38
17 22 22 20 14 11 22 24 23 24 23 26 27 27 28 28 26 28 28 26 24 23 22 22 23 23 24 25 26 26 26 28 27 28 29 30 31 32 32 33 34 36 37 36
16 19 21 18 17 18 24 24 27 21 26 27 29 28 29 30 30 30 28 26 24 23 21 22 22 22 23 25 26 25 25 26 26 27 28 29 30 30 31 32 32 33 35 35
20 20 21 19 17 14 24 25 23 27 28 29 30 28 29 29 29 28 26 24 23 22 21 21 21 22 23 24 24 23 24 26 26 26 27 28 29 29 29 30 31 31 32 33
23 23 21 21 22 29 26 27 29 28 27 30 30 28 29 28 27 26 25 24 22 22 21 21 21 22 23 23 23 23 24 25 26 26 26 27 27 28 29 29 29 30 31 32
25 26 24 22 27 26 28 28 29 28 28 29 30 29 28 27 27 26 24 22 21 21 21 21 21 21 22 23 23 24 25 25 25 25 26 26 27 28 27 28 27 27 28 30
29 29 30 21 25 28 28 29 30 28 29 29 30 27 27 26 25 25 23 22 21 20 20 21 21 21 21 22 23 23 24 25 24 25 25 26 26 26 27 27 26 26 27 27
27 32 28 27 26 25 28 31 30 29 29 28 27 26 25 26 24 23 23 22 20 20 19 19 20 21 21 22 23 24 24 24 24 23 24 25 26 27 26 27 29 24 24 24

GFSCGP_sfc_dewp_141.txt.gz
Dewpoint
14 9 5 0 9 8 2 -3 -6 -5 -2 2 1 1 -0 4 6 12 16 23 28 29 34 38 41 41 41 44 44 48 48 53 51 43 41 42 58 65 64 64 65 67 68 68
11 5 6 9 7 4 1 0 -2 -1 -2 1 0 2 3 6 9 14 23 25 26 30 35 36 38 39 41 42 43 43 44 47 51 45 39 40 42 62 65 64 64 66 68 68
6 10 12 8 8 4 1 2 2 -1 -0 2 4 1 4 7 10 20 23 25 29 36 35 35 36 38 39 38 41 40 42 44 48 53 40 39 40 53 65 65 64 65 67 67
2 13 11 9 7 5 0 5 1 0 3 -5 4 -6 -3 5 11 19 23 31 36 36 35 35 36 36 37 37 39 38 40 42 46 52 49 41 34 42 59 65 65 64 66 67
7 13 10 9 5 7 2 8 5 8 9 8 3 4 -1 4 15 20 29 34 35 34 34 35 35 35 35 36 37 37 38 40 45 51 53 39 40 42 56 63 63 65 66 66
7 12 10 7 8 7 6 8 10 12 13 8 7 7 -5 11 19 24 31 33 34 34 35 35 34 35 34 35 37 36 37 38 43 48 52 46 43 46 57 60 62 63 65 66
11 12 10 11 6 10 8 11 7 10 10 4 6 3 3 17 22 25 29 31 33 34 35 34 34 34 35 34 36 36 36 38 42 50 49 44 45 43 58 61 62 61 64 65
8 7 11 11 7 5 9 11 11 9 -0 0 1 -0 10 18 22 26 28 31 33 33 34 34 35 35 35 34 35 36 36 37 41 50 41 43 44 40 56 60 61 58 58 63
12 7 10 10 9 7 16 14 17 19 10 13 4 7 7 20 23 25 28 30 32 33 34 34 35 34 34 33 35 35 36 36 40 47 51 42 44 44 56 61 63 57 55 55
13 16 12 10 10 13 16 18 20 20 13 5 -4 1 8 22 24 27 29 30 32 33 32 33 35 35 34 33 34 35 36 36 39 44 48 50 43 50 60 61 61 61 61 62
18 19 13 13 14 12 18 17 16 18 15 12 6 7 21 23 26 28 30 31 32 32 32 33 34 35 34 33 33 33 35 36 38 42 44 49 55 57 59 61 61 63 63 64
19 20 14 12 12 11 14 20 18 22 16 16 16 11 21 25 28 29 31 31 32 32 32 33 33 34 34 33 32 32 34 35 37 41 41 45 47 52 54 57 62 63 64 66
21 17 10 8 12 14 14 13 14 18 20 15 16 11 19 22 28 30 31 31 31 31 31 32 34 33 34 33 32 32 33 34 36 38 39 41 43 45 50 51 55 58 63 63
25 18 23 14 11 17 17 11 12 19 22 15 13 14 12 25 29 30 31 31 31 30 30 32 34 33 33 33 32 33 34 34 35 36 36 37 41 42 46 47 50 52 56 62
19 18 17 6 1 8 13 12 12 26 20 21 18 16 17 29 30 31 31 30 28 28 28 31 34 33 32 32 33 33 34 34 34 35 35 36 38 41 42 43 46 50 52 55
21 13 13 8 2 -3 -4 6 11 13 14 12 15 16 29 30 31 29 30 29 28 27 28 28 31 33 32 31 33 33 33 35 34 34 34 35 35 37 39 40 42 44 47 50
20 13 8 3 -2 -4 12 10 14 32 21 24 26 29 31 29 29 30 31 29 28 26 27 27 30 32 31 30 30 33 33 33 33 33 34 34 34 34 36 38 38 40 42 44
19 14 9 6 14 12 20 21 16 17 28 27 25 29 31 29 30 32 29 28 27 26 25 25 25 25 25 28 28 30 30 31 31 32 32 34 34 34 35 35 36 38 39 39
15 12 15 14 14 17 22 21 19 19 21 23 28 28 28 28 30 34 28 27 26 25 24 24 24 24 25 25 26 26 27 28 29 30 30 32 32 33 34 33 35 37 37 36
10 14 19 16 13 12 21 22 23 21 21 26 27 27 27 28 25 28 29 27 25 24 24 23 23 24 24 24 25 25 25 27 27 29 30 30 32 32 32 33 34 36 36 35
15 18 18 17 16 19 24 23 24 19 26 27 32 28 28 30 30 30 29 26 25 24 23 23 23 23 24 24 25 25 25 25 27 28 29 29 30 30 31 32 32 34 34 34
12 16 20 18 16 14 25 24 21 28 29 30 30 29 29 29 29 28 26 25 24 22 22 23 22 23 23 23 24 23 24 25 26 28 28 28 30 29 29 29 30 32 32 32
21 20 20 19 20 30 25 27 29 27 27 30 30 29 29 28 28 26 25 24 23 22 21 22 22 23 23 23 23 23 24 25 26 27 27 27 28 29 30 30 27 28 30 31
25 25 26 24 26 25 25 26 26 26 28 29 29 28 28 27 27 26 24 23 22 21 20 21 21 21 22 23 23 23 24 25 25 26 26 27 28 28 28 28 28 26 26 28
28 28 26 22 23 26 25 26 28 28 29 29 28 27 26 26 26 25 24 23 22 21 21 20 21 21 22 22 23 23 24 25 24 25 26 26 29 28 29 27 27 27 26 26
28 34 29 29 27 25 28 28 30 29 28 28 27 26 26 26 24 24 23 23 21 21 20 20 20 20 21 23 25 23 25 25 25 25 25 29 29 28 28 28 29 26 25 24

GFSCGP_sfc_dewp_144.txt.gz
Dewpoint
15 11 9 9 10 6 5 2 -1 -2 -3 -1 1 -1 -2 -0 4 12 20 25 25 36 37 37 38 39 40 40 41 40 41 42 42 43 45 48 50 44 47 63 64 66 67 67
12 12 13 8 8 5 1 -3 -3 -2 -2 -1 -1 -2 0 4 8 17 23 25 34 36 34 35 37 38 40 39 39 38 38 40 39 40 42 45 48 50 42 52 63 65 67 67
12 12 10 8 7 5 0 1 1 1 -1 -1 0 0 3 6 9 20 26 32 33 33 33 34 35 37 37 37 38 36 37 38 38 40 40 43 47 50 46 42 61 62 66 67
11 11 10 8 4 4 4 3 2 -1 -2 -4 4 -2 2 6 9 21 30 32 31 33 34 34 34 35 36 36 37 36 36 36 37 39 39 42 44 47 49 42 48 62 63 66
10 7 11 8 7 3 2 9 6 2 2 5 4 1 3 5 10 23 29 30 31 33 33 33 34 34 35 36 36 35 34 35 36 37 40 42 44 46 51 43 42 59 62 65
10 11 12 11 7 7 6 5 3 5 9 9 10 7 3 5 20 24 27 29 31 32 33 34 34 34 34 35 35 34 34 35 35 37 38 42 44 48 50 47 41 58 61 62
10 10 11 10 8 8 6 6 6 9 12 11 7 6 7 20 23 26 26 28 31 32 34 33 33 34 34 34 35 34 34 34 35 36 38 41 46 50 50 50 35 51 59 61
11 8 12 10 9 6 9 6 17 10 10 8 2 0 10 20 23 27 28 29 31 32 33 32 33 34 34 34 34 34 35 34 35 36 38 41 46 50 48 44 39 41 59 60
16 10 9 11 10 6 10 11 13 19 13 6 0 2 14 20 24 27 28 29 31 31 32 32 34 34 33 33 35 34 35 34 35 37 38 40 45 49 44 44 47 47 56 61
20 20 10 10 8 8 11 16 15 11 7 3 1 3 14 22 24 27 28 29 31 32 32 33 35 34 33 33 34 35 35 34 35 37 39 40 43 47 53 47 45 57 59 59
19 26 14 13 12 8 11 19 16 17 19 12 6 6 21 24 27 28 29 30 31 32 33 33 34 34 33 32 33 34 34 34 35 36 38 39 42 45 49 54 57 53 54 59
24 28 19 12 13 10 11 15 15 23 10 13 15 12 25 28 28 29 30 30 30 32 33 33 33 33 33 32 32 33 33 33 35 36 37 39 40 44 46 48 51 55 57 57
24 23 16 13 14 14 13 13 16 17 20 20 21 13 26 28 29 30 30 30 30 31 32 32 34 33 32 32 32 33 33 32 34 34 37 37 39 40 43 45 47 51 55 56
31 25 24 18 15 17 16 13 12 20 23 16 11 10 16 28 29 29 30 30 30 30 31 32 33 33 32 32 32 32 33 32 34 33 34 35 37 38 40 42 45 47 50 53
27 23 24 16 10 12 13 11 10 24 22 22 15 14 20 29 30 30 30 29 28 27 28 30 32 33 32 31 31 31 33 33 33 32 33 34 35 37 37 39 41 44 46 47
24 21 18 16 9 -2 -1 12 14 15 14 13 13 11 29 28 29 28 30 28 28 27 27 28 29 31 32 30 30 30 32 32 33 32 32 33 34 34 35 36 39 40 41 43
27 23 15 9 8 4 11 15 14 31 16 16 20 26 31 28 28 30 31 28 27 26 26 27 28 29 29 29 28 29 30 31 32 32 32 32 33 33 34 34 36 37 37 38
25 22 19 13 14 8 10 16 8 8 21 18 19 30 30 27 28 32 29 28 27 25 25 25 25 25 25 27 26 28 28 29 30 31 31 32 32 32 33 33 34 36 36 36
23 22 21 16 14 14 20 21 18 14 16 23 26 29 26 26 28 32 28 27 26 25 24 24 24 24 25 25 25 26 27 27 28 30 31 32 31 31 31 32 34 35 35 34
19 24 22 19 15 17 19 20 21 21 21 26 28 27 26 26 23 30 28 26 25 24 24 23 24 24 24 24 25 25 25 26 27 29 30 31 32 31 29 30 31 34 34 34
19 19 17 18 18 19 23 22 22 16 25 30 30 28 28 31 29 30 28 25 24 23 23 23 23 23 24 24 24 24 24 25 26 29 30 30 31 29 29 28 28 30 32 33
17 18 18 19 19 15 24 23 20 29 30 32 31 30 30 30 29 28 26 24 23 22 22 22 22 23 23 23 24 23 23 24 26 28 28 30 30 29 27 28 26 26 28 30
20 22 22 19 22 31 26 29 30 28 30 30 30 30 29 28 27 26 25 23 22 22 21 21 21 22 23 23 23 23 24 25 25 27 28 29 30 31 30 28 26 24 26 27
20 20 28 26 26 24 27 27 26 26 29 29 29 28 28 27 27 26 24 23 21 21 21 20 20 20 21 22 23 24 24 26 25 25 27 27 29 30 30 28 27 24 24 24
32 29 30 25 25 26 25 26 26 28 30 29 28 26 26 26 26 25 24 23 22 21 20 20 20 19 19 21 23 24 25 25 25 26 26 27 29 29 28 28 27 26 26 26
29 35 32 32 30 28 26 28 28 28 28 28 27 26 26 25 24 23 26 23 21 21 20 19 19 19 19 21 22 23 26 28 25 26 26 28 27 28 28 28 29 28 29 28

GFSCGP_sfc_dewp_147.txt.gz
Dewpoint
15 10 9 10 10 7 5 5 0 1 2 -0 0 1 -0 -1 6 22 30 34 33 33 34 34 35 35 36 36 36 36 36 36 36 36 37 37 38 41 43 45 50 52 61 66
15 12 14 14 12 9 7 3 0 1 2 4 0 -2 -2 1 12 28 32 32 32 33 34 34 34 35 35 35 35 35 35 35 34 35 36 37 38 39 41 43 46 50 53 64
13 15 15 13 10 9 7 4 3 3 0 1 -2 -1 -1 8 30 32 31 31 32 33 33 34 34 34 34 34 35 34 35 34 34 35 35 36 37 39 41 43 47 50 51 58
14 15 13 11 9 8 5 9 6 2 -0 -3 3 -0 1 9 29 31 30 31 32 32 33 34 33 34 34 34 35 34 35 34 33 35 35 35 36 37 39 42 44 46 50 50
15 12 13 11 10 8 9 12 11 9 3 2 2 3 3 8 27 28 29 30 31 32 33 33 33 33 34 34 34 33 34 34 33 35 35 35 36 38 40 41 43 46 49 52
15 13 12 12 14 10 10 7 8 7 5 8 7 8 6 9 25 27 28 30 31 32 33 33 32 33 34 33 33 33 34 33 34 35 35 35 37 37 39 41 43 45 49 50
14 12 11 13 10 10 6 6 7 9 8 10 12 11 14 25 26 27 29 30 31 32 32 32 32 33 33 32 33 33 34 33 34 34 35 36 37 39 41 43 46 48 50 50
12 11 12 12 10 10 9 8 15 14 14 15 12 2 20 26 28 29 30 31 31 32 32 32 34 34 32 31 32 34 34 33 34 34 35 36 38 41 42 44 46 51 51 51
16 12 13 12 11 11 13 10 12 19 17 14 7 18 23 27 27 28 29 30 31 32 32 32 34 34 31 31 32 34 34 34 36 35 36 36 38 40 42 45 50 51 51 48
23 20 14 12 12 12 10 17 16 17 10 6 7 10 17 26 27 28 29 30 31 32 32 33 34 33 31 31 32 33 34 34 36 35 37 37 37 39 41 44 46 50 56 51
20 27 19 16 16 10 13 20 20 21 21 16 12 17 26 28 28 29 30 30 31 32 32 32 33 33 32 31 31 32 33 33 35 36 37 37 37 40 41 43 45 48 54 52
26 29 22 13 16 13 12 17 22 19 15 19 17 19 28 28 30 30 30 32 31 31 32 32 33 32 32 31 30 30 32 33 33 35 35 36 37 38 40 40 43 46 49 57
23 25 18 17 17 17 14 12 15 22 24 19 19 21 28 29 30 31 30 30 31 31 31 32 32 30 31 31 30 30 30 32 33 33 35 35 36 36 37 40 42 44 45 48
32 25 23 18 20 20 17 14 14 20 21 19 19 25 28 29 30 30 30 30 30 29 30 31 30 28 29 30 30 29 30 31 32 32 33 33 34 35 36 38 40 41 42 43
30 24 23 22 23 21 16 16 14 23 22 21 19 18 28 30 30 31 30 30 29 28 28 29 30 28 28 28 29 28 30 29 30 31 32 33 33 33 34 35 37 39 40 41
30 25 23 21 21 21 9 19 18 16 19 17 18 17 29 30 31 31 30 28 28 27 27 28 28 29 29 28 27 28 30 29 29 30 31 32 31 31 32 34 35 37 37 38
27 25 22 21 23 21 15 15 17 24 25 23 20 28 31 29 31 32 30 29 28 26 26 27 27 28 28 27 26 27 28 28 28 30 30 31 30 31 30 32 34 35 35 35
27 24 25 18 18 11 16 14 8 13 21 22 27 31 30 29 32 31 29 28 28 26 25 25 24 25 25 25 25 26 26 26 27 29 30 30 30 30 29 29 31 34 34 34
26 24 24 19 12 14 22 19 20 19 21 20 30 30 29 30 32 29 28 27 26 25 24 24 24 24 24 23 24 24 24 25 26 28 29 31 30 28 29 28 29 30 33 33
25 27 24 22 12 12 23 19 22 23 24 30 30 30 29 28 24 27 28 27 25 23 23 22 23 24 23 23 23 23 24 24 26 28 29 31 31 28 27 27 28 29 31 32
22 23 20 20 22 23 24 23 24 18 23 30 30 30 30 26 28 29 29 25 23 22 22 22 22 23 22 23 24 23 23 23 26 29 29 31 30 29 27 26 26 26 28 29
20 19 19 22 21 19 25 24 23 31 32 32 32 32 31 30 30 29 27 23 22 21 21 21 21 21 22 23 24 23 24 24 26 28 28 30 29 31 27 26 25 25 25 26
20 24 22 23 25 31 30 31 33 32 32 33 31 30 30 29 28 27 25 23 22 21 20 21 20 20 21 22 23 24 24 26 26 27 26 28 29 29 28 27 24 24 25 25
24 23 29 27 29 29 28 28 31 30 31 32 30 30 29 28 27 26 23 22 21 20 20 20 19 19 19 21 23 23 25 27 26 26 26 27 28 28 29 26 25 25 25 25
30 25 30 28 30 27 27 29 30 29 30 28 29 28 28 27 25 26 23 22 21 21 20 19 20 18 19 21 22 22 24 27 28 26 26 28 27 28 28 28 26 26 28 28
31 31 30 30 29 29 28 30 31 30 29 29 27 26 25 25 24 26 23 22 20 20 18 19 20 18 19 21 22 23 25 27 28 27 26 27 28 28 28 28 28 30 29 28